Weather History for St. Petersburg, FL

Change the Weather History Date:

Thursday, February 6, 2014

  Actual Average Record
Temperature  
Mean Temperature 63 °F -  
Max Temperature 69 °F 70 °F 84 °F (1957)
Min Temperature 55 °F 54 °F 42 °F (1966)
Degree Days  
Heating Degree Days 2    
Growing Degree Days 13 (Base 50)    
Moisture  
Dew Point 61 °F    
Average Humidity 86    
Maximum Humidity 90    
Minimum Humidity 81    
Precipitation  
Precipitation 0.00 in - - ()
Sea Level Pressure  
Sea Level Pressure 30.08 in    
Wind  
Wind Speed 8 mph (NNE)    
Max Wind Speed 21 mph    
Max Gust Speed 28 mph    
Visibility 9 miles    
Events Rain    
Averages and records for this station are not official NWS values.
T = Trace of Precipitation, MM = Missing Value Source: NWS Daily Summary

Daily Weather History Graph

Daily Weather History Graph

Search for Another Location

Airport:

Trip Planner

Search our weather history database for the weather conditions in past years. The results will help you decide how hot, cold, wet, or windy it might be!

Date:

Astronomy

Feb. 06, 2014 Rise Set
Actual Time 7:14 AM EST 6:15 PM EST
Civil Twilight 6:50 AM EST 6:39 PM EST
Nautical Twilight 6:22 AM EST 7:07 PM EST
Astronomical Twilight 5:54 AM EST 7:34 PM EST
Moon 11:47 AM EST (2/6) 12:29 AM EST (2/6)
Length of Visible Light 11h 49m
Length of Day
11h 00m
Waxing Crescent, 49% of the Moon is Illuminated
Feb 6
Waxing Crescent
Feb 6
First Quarter
Feb 14
Full
Feb 22
Last Quarter
Mar 1
New

Hourly Weather History & Observations

Time (EST) Temp. Dew Point Humidity Pressure Visibility Wind Dir Wind Speed Gust Speed Precip Events Conditions
12:39 AM 69.1 °F 66.0 °F 90% 30.05 in 10.0 mi NNW 8.1 mph - N/A   Overcast
12:48 AM 68.0 °F 64.4 °F 88% 30.05 in 10.0 mi North 9.2 mph - N/A   Overcast
12:53 AM 68.0 °F 64.9 °F 90% 30.06 in 10.0 mi North 6.9 mph - N/A   Overcast
1:16 AM 66.9 °F 62.1 °F 84% 30.06 in 10.0 mi North 5.8 mph - N/A   Overcast
1:34 AM 66.9 °F 62.1 °F 84% 30.06 in 10.0 mi North 4.6 mph - N/A   Scattered Clouds
1:53 AM 66.0 °F 60.1 °F 81% 30.06 in 10.0 mi North 6.9 mph - N/A   Scattered Clouds
2:53 AM 64.9 °F 59.0 °F 81% 30.05 in 10.0 mi North 4.6 mph - N/A   Overcast
3:53 AM 64.0 °F 59.0 °F 84% 30.05 in 10.0 mi North 5.8 mph - N/A   Overcast
4:26 AM 64.0 °F 59.0 °F 84% 30.05 in 10.0 mi North 5.8 mph - N/A   Mostly Cloudy
4:51 AM 64.4 °F 59.0 °F 83% 30.05 in 10.0 mi North 5.8 mph - N/A   Mostly Cloudy
4:53 AM 64.0 °F 59.0 °F 84% 30.05 in 10.0 mi North 6.9 mph - N/A   Mostly Cloudy
5:53 AM 64.0 °F 59.0 °F 84% 30.06 in 10.0 mi North 6.9 mph - N/A   Partly Cloudy
6:53 AM 64.0 °F 61.0 °F 90% 30.08 in 10.0 mi NNE 8.1 mph - N/A   Partly Cloudy
7:53 AM 64.0 °F 61.0 °F 90% 30.10 in 10.0 mi NNE 6.9 mph - N/A   Overcast
8:53 AM 64.9 °F 62.1 °F 90% 30.12 in 10.0 mi ENE 8.1 mph - N/A   Overcast
9:10 AM 64.9 °F 62.1 °F 90% 30.12 in 10.0 mi NE 10.4 mph - N/A   Overcast
9:53 AM 66.0 °F 63.0 °F 90% 30.14 in 7.0 mi ENE 5.8 mph - N/A   Overcast
10:34 AM 66.9 °F 63.0 °F 87% 30.13 in 6.0 mi ENE 6.9 mph - N/A   Overcast
10:53 AM 66.9 °F 63.0 °F 87% 30.13 in 9.0 mi NE 6.9 mph - N/A   Overcast
11:13 AM 66.9 °F 62.1 °F 84% 30.13 in 10.0 mi NNE 8.1 mph - N/A   Overcast
11:53 AM 66.0 °F 62.1 °F 87% 30.12 in 8.0 mi NNE 9.2 mph - 0.00 in Rain Light Rain
12:53 PM 66.0 °F 62.1 °F 87% 30.09 in 10.0 mi ENE 8.1 mph - 0.00 in   Overcast
1:53 PM 66.0 °F 62.1 °F 87% 30.06 in 9.0 mi ENE 10.4 mph - 0.00 in Rain Light Rain
2:53 PM 68.0 °F 63.0 °F 84% 30.03 in 10.0 mi ENE 8.1 mph - 0.00 in   Overcast
3:14 PM 66.9 °F 63.0 °F 87% 30.03 in 10.0 mi ENE 8.1 mph - N/A   Scattered Clouds
3:53 PM 66.9 °F 63.0 °F 87% 30.03 in 9.0 mi ENE 9.2 mph - N/A   Scattered Clouds
4:04 PM 66.9 °F 62.1 °F 84% 30.04 in 10.0 mi ENE 6.9 mph - N/A   Mostly Cloudy
4:53 PM 66.9 °F 63.0 °F 87% 30.06 in 8.0 mi ENE 3.5 mph - N/A   Overcast
5:11 PM 66.9 °F 63.0 °F 87% 30.05 in 7.0 mi ENE 5.8 mph - N/A   Overcast
5:21 PM 66.9 °F 63.0 °F 87% 30.06 in 7.0 mi ENE 5.8 mph - N/A   Overcast
5:35 PM 66.0 °F 63.0 °F 90% 30.06 in 8.0 mi East 4.6 mph - N/A   Overcast
5:53 PM 66.0 °F 63.0 °F 90% 30.07 in 8.0 mi ENE 5.8 mph - N/A   Overcast
6:53 PM 66.0 °F 61.0 °F 84% 30.08 in 9.0 mi North 9.2 mph - 0.00 in Rain Light Rain
7:53 PM 63.0 °F 59.0 °F 87% 30.09 in 10.0 mi NE 15.0 mph - 0.00 in   Overcast
8:53 PM 61.0 °F 55.9 °F 83% 30.12 in 10.0 mi NE 15.0 mph - N/A   Overcast
9:39 PM 60.1 °F 55.0 °F 83% 30.16 in 10.0 mi NNE 18.4 mph - N/A   Overcast
9:53 PM 57.9 °F 54.0 °F 87% 30.15 in 10.0 mi NNE 13.8 mph - N/A   Overcast
10:53 PM 57.0 °F 53.1 °F 87% 30.16 in 10.0 mi NNE 20.7 mph - N/A   Overcast
11:53 PM 55.9 °F 53.1 °F 90% 30.16 in 10.0 mi NE 18.4 mph 27.6 mph N/A   Overcast